Wind_Speed
4 3 6 3 2 5 5 5 5 8 7 6 4 4 6 7 8 11 14 15 16 15 20 25 28 30 30 33 34 34 34 36 36 34 32 32 37 33 32 36 32 34 30 35
3 5 2 3 5 7 1 4 7 11 7 7 6 5 7 7 9 11 12 13 15 17 20 21 22 26 29 29 32 32 34 36 34 34 32 34 33 32 32 35 39 37 37 37
5 9 9 7 6 2 4 4 7 8 8 11 8 7 6 6 8 10 10 11 11 13 15 17 19 21 23 27 27 31 31 34 34 29 35 35 32 32 34 33 31 32 37 35
2 8 6 2 7 6 7 6 10 15 13 10 10 8 8 7 7 7 9 9 8 7 13 16 19 19 21 24 25 30 31 33 34 33 35 33 33 35 35 37 34 32 34 35
3 9 4 4 10 9 9 6 10 12 13 13 12 11 8 7 6 3 6 9 10 8 15 16 19 21 22 25 28 28 33 32 31 35 32 33 35 34 33 31 30 31 30 31
6 5 3 6 12 10 5 6 11 13 13 13 12 5 4 6 5 2 7 9 11 14 15 18 19 21 22 23 24 26 26 27 25 28 32 32 32 32 28 29 29 27 27 29
7 6 4 5 9 3 5 3 13 13 13 13 9 4 11 9 5 4 3 7 10 13 15 17 18 19 21 20 22 23 22 26 26 25 26 26 26 28 28 25 26 28 27 28
6 7 4 9 6 4 4 9 8 10 9 10 15 13 12 8 7 5 7 8 11 12 15 16 18 18 20 23 22 21 24 23 27 24 23 25 27 29 31 29 28 29 29 28
4 2 2 5 2 8 8 9 8 11 12 15 15 13 11 8 9 9 9 9 10 11 12 14 17 19 20 21 20 19 20 22 21 24 22 22 23 23 25 26 25 24 24 25
6 4 6 5 5 6 9 10 11 12 13 14 14 13 11 9 10 9 9 9 9 10 11 13 14 16 17 18 18 17 18 19 19 20 20 20 18 18 20 19 19 20 21 22
4 7 7 7 8 9 10 11 11 12 12 12 13 12 11 9 10 10 10 9 9 9 9 11 12 14 15 17 17 16 17 18 20 19 20 20 18 17 16 15 15 15 15 17
2 13 6 13 12 13 12 11 10 11 11 13 13 10 13 11 11 10 9 9 9 8 9 10 10 12 14 15 16 16 15 16 16 16 17 16 17 16 15 15 13 12 14 19
3 13 7 14 14 17 15 14 14 13 14 12 13 14 13 12 11 11 10 8 7 7 7 8 10 11 13 14 14 14 12 12 13 15 15 16 16 16 15 17 15 16 16 17
14 13 12 16 13 14 15 16 16 15 14 14 14 14 13 13 10 9 8 7 6 7 7 8 8 9 10 10 9 11 11 13 14 14 13 14 15 16 16 17 17 18 18 16
10 9 13 14 15 14 16 16 13 11 13 14 13 14 14 13 11 9 7 6 6 7 7 6 6 7 9 11 9 9 10 11 13 13 13 15 15 16 17 17 18 18 18 16
9 12 14 12 14 14 14 13 12 11 12 13 13 13 12 12 11 9 6 2 5 5 4 5 5 6 8 9 9 9 9 10 12 13 14 15 16 16 17 16 16 18 18 15
10 12 13 13 12 13 12 13 12 12 13 13 13 13 13 13 11 9 7 5 6 5 3 2 3 5 7 8 7 8 9 10 13 13 13 13 15 17 16 17 17 17 16 18
9 9 11 12 10 10 10 12 14 16 14 14 15 14 14 14 11 12 9 6 3 2 2 2 4 4 4 9 8 5 8 10 12 13 12 12 15 16 15 17 17 17 18 18
9 12 13 15 15 13 13 12 14 15 16 19 19 15 14 11 10 10 8 6 4 5 7 3 2 2 1 6 10 7 8 10 12 13 13 13 15 14 16 17 17 17 18 18
8 9 10 13 15 14 13 13 16 18 19 20 18 15 13 11 10 10 7 7 6 2 2 4 3 1 4 4 7 9 9 10 12 12 13 14 14 15 16 16 17 17 18 17
7 10 10 12 11 13 17 20 20 17 16 17 18 15 13 11 10 8 5 7 9 10 5 4 2 3 2 3 10 10 11 11 12 13 14 15 15 15 16 16 17 18 18 17
13 12 14 16 16 15 17 17 17 17 17 16 13 13 12 10 9 9 10 7 5 4 2 4 6 5 6 10 8 10 12 12 14 14 15 16 16 17 17 16 17 18 17 18
11 12 13 14 13 12 12 12 13 15 16 17 16 15 13 9 9 9 8 4 7 7 4 5 8 8 10 12 10 11 15 14 15 15 17 17 18 18 19 19 19 19 18 18
10 10 10 11 13 13 11 9 11 11 13 13 13 13 11 6 6 6 4 3 5 7 7 8 9 12 14 12 11 14 17 16 16 17 16 17 20 21 21 22 21 20 20 18
11 12 12 13 12 10 10 11 12 10 10 10 9 11 12 5 3 3 2 1 3 4 7 8 9 13 16 14 13 15 16 18 19 15 18 17 18 21 21 21 23 22 19 20
11 11 11 11 10 12 13 14 12 13 12 11 11 10 8 7 5 3 2 3 4 6 7 8 9 10 11 13 15 16 13 15 18 17 17 18 18 20 20 21 20 19 18 17
8 9 9 9 9 11 13 12 11 13 12 10 10 14 11 9 6 2 4 4 4 4 6 7 8 10 10 11 12 14 14 14 17 18 18 16 20 22 19 17 19 20 22 23
Wind_Direction
305 103 77 48 329 319 276 301 250 142 135 149 95 72 55 39 35 28 25 25 20 14 8 6 7 10 14 17 17 23 28 38 38 38 42 47 49 49 48 52 47 46 44 40
272 245 189 199 227 241 172 120 112 124 124 129 129 106 69 50 40 37 25 26 24 16 11 8 15 10 12 18 21 25 29 32 38 37 43 45 47 48 49 48 42 38 37 38
250 192 226 234 200 189 167 60 181 189 130 152 134 96 67 53 52 39 33 24 36 21 4 11 21 22 21 18 20 27 34 36 36 36 41 42 44 46 45 45 44 42 39 38
304 166 228 93 181 181 142 121 107 113 141 131 118 112 92 69 63 41 28 31 46 41 15 22 17 32 29 27 29 30 34 35 33 34 36 36 36 39 37 38 37 38 37 35
230 217 104 191 198 172 178 171 153 140 136 130 135 125 93 92 86 25 17 41 33 56 47 25 26 24 30 31 30 33 33 31 32 33 32 33 34 33 36 36 36 36 37 35
289 264 254 83 167 200 204 209 182 160 156 154 160 196 123 121 109 16 32 55 45 42 32 30 34 28 28 34 37 32 38 34 35 39 39 36 34 31 31 35 34 32 32 33
246 267 94 130 122 144 210 118 160 164 165 166 174 74 122 136 131 249 244 57 61 52 44 33 28 35 28 31 41 37 31 35 35 38 43 44 41 35 31 32 32 29 28 26
233 240 177 124 148 236 95 121 150 146 167 144 120 130 131 148 164 168 90 70 62 57 48 38 31 33 31 23 27 34 31 33 31 33 40 37 37 35 29 26 26 23 20 19
13 65 99 29 90 139 136 128 122 113 121 129 131 131 140 175 142 115 98 81 69 63 55 43 37 34 30 20 22 29 35 26 34 28 33 40 34 36 32 27 27 23 18 14
173 130 144 108 106 123 128 119 118 124 132 135 135 148 151 141 137 114 94 83 76 67 59 52 41 37 31 23 18 28 27 33 25 27 27 32 36 38 38 36 32 26 22 15
97 147 149 174 132 126 117 115 121 129 141 137 140 147 146 131 121 112 107 91 81 76 66 57 46 38 30 25 22 23 29 25 21 23 21 19 25 37 43 41 45 42 34 26
223 175 181 166 153 143 134 138 136 131 131 144 145 140 139 129 127 119 106 96 87 73 66 59 49 39 29 24 23 23 26 15 18 19 20 16 17 18 20 25 19 43 35 28
139 159 152 137 161 160 156 158 150 149 148 143 142 139 135 131 112 114 109 100 90 82 70 62 52 37 25 21 22 23 21 16 5 15 18 10 10 10 3 3 7 7 11 21
126 118 129 153 159 155 153 150 149 145 144 144 142 136 127 132 145 122 110 104 100 90 74 65 57 37 21 16 16 14 18 16 11 1 10 5 2 0 358 358 353 352 358 2
139 153 152 156 151 153 151 152 149 148 147 143 146 145 146 149 133 124 125 141 125 99 76 68 61 30 24 15 13 11 14 15 5 356 1 1 2 359 353 353 348 347 350 355
168 142 157 154 160 155 156 162 159 155 155 154 154 153 152 136 135 137 126 122 172 109 83 57 52 12 16 14 14 4 7 6 2 353 360 359 358 357 344 346 347 348 352 355
172 158 166 168 166 165 169 168 161 159 161 163 157 152 145 150 150 152 143 125 129 119 82 29 23 2 22 9 11 354 357 357 357 358 355 356 1 341 340 347 344 343 347 347
164 167 164 173 164 167 168 172 158 161 163 165 158 157 161 165 175 160 166 171 160 212 216 328 357 29 17 347 2 3 350 355 351 348 350 350 348 335 347 343 340 344 342 341
167 161 170 167 168 173 172 170 163 163 160 153 154 155 160 163 156 175 181 192 214 243 209 301 344 20 329 321 359 355 345 351 344 342 343 342 338 338 341 332 335 336 336 335
132 141 145 150 163 171 160 157 142 138 158 161 163 166 168 176 179 187 187 218 238 228 227 241 283 293 298 339 335 338 328 336 329 329 332 332 330 333 327 330 330 330 330 331
103 123 122 121 116 143 148 153 151 147 165 175 172 175 178 186 196 192 192 244 250 226 244 261 312 271 284 303 329 325 319 317 319 324 321 319 318 318 318 318 319 321 322 324
111 107 114 126 120 116 146 153 165 167 173 176 173 174 168 180 199 211 216 238 183 221 231 272 287 259 247 308 319 310 306 308 311 310 311 311 309 309 306 306 308 307 310 312
118 129 138 141 136 136 145 153 172 180 176 175 176 177 179 189 195 202 232 243 211 247 235 280 290 280 292 308 315 304 303 302 304 307 309 308 307 306 305 303 300 300 301 306
133 142 143 145 144 140 154 159 168 176 179 183 187 188 182 197 209 233 245 234 217 243 266 273 279 293 298 296 296 296 298 297 301 303 306 313 312 307 305 304 297 300 298 298
153 144 148 149 157 169 164 160 156 157 166 174 183 196 193 207 223 52 68 30 334 313 297 296 292 297 273 277 281 284 290 300 297 298 309 309 316 315 313 313 313 306 303 305
163 168 176 183 183 170 164 170 176 173 177 182 177 184 193 195 205 209 276 279 280 280 284 293 296 302 293 283 295 302 310 320 321 326 327 328 326 325 325 325 326 326 325 326
174 160 156 178 190 167 162 176 184 173 181 183 190 182 184 181 172 202 259 268 295 323 322 329 338 333 333 342 341 338 336 334 332 333 335 335 333 331 332 332 328 330 330 331
Height
766 770 774 788 784 787 777 776 768 791 799 817 825 829 832 833 833 831 830 830 829 827 822 817 812 808 804 797 788 780 776 769 765 765 763 761 753 758 759 754 762 752 756 757
792 774 774 795 796 800 778 780 785 794 814 820 824 827 831 835 834 835 835 835 834 832 829 824 819 814 808 804 800 794 787 779 777 777 777 770 770 771 770 765 758 764 763 760
770 775 771 783 792 785 778 775 776 780 801 816 821 828 834 835 837 837 837 837 838 838 834 830 825 821 815 809 804 797 793 789 788 790 781 779 779 778 774 774 777 778 770 769
760 770 768 790 777 775 783 787 789 799 806 808 820 829 834 838 840 841 839 838 838 839 836 832 829 825 822 815 810 805 798 795 795 790 785 786 783 777 775 771 776 777 776 775
758 757 783 787 775 777 776 789 789 795 803 813 821 826 835 839 842 843 839 838 838 836 836 833 830 826 822 817 812 807 802 800 798 796 795 792 788 785 785 786 785 784 786 786
750 752 751 760 764 768 769 777 785 792 800 809 815 818 831 840 842 842 839 837 837 836 836 833 831 828 824 821 819 816 814 811 809 805 802 798 797 796 798 796 794 795 795 791
752 748 770 763 768 773 780 782 780 786 796 803 810 822 833 840 841 841 839 839 838 839 838 837 835 832 829 826 823 822 820 816 813 812 810 809 809 808 806 804 803 801 799 797
746 749 766 771 779 780 784 781 784 786 791 800 818 828 834 840 840 839 838 838 838 840 840 841 839 836 834 830 828 826 824 821 820 818 817 815 813 812 810 808 806 803 801 799
772 778 784 785 784 782 784 787 791 795 804 812 819 827 834 837 834 836 838 839 840 842 843 844 843 841 839 837 834 832 830 829 828 826 825 822 821 819 818 816 814 813 811 808
775 789 788 789 786 786 788 792 797 803 809 815 821 827 831 833 834 837 839 841 843 845 846 847 847 845 844 842 840 837 836 834 832 832 830 828 826 825 823 823 822 819 817 815
785 787 790 790 791 793 795 799 804 808 811 816 822 827 829 832 835 839 842 845 846 848 849 849 849 849 848 846 844 842 840 838 836 834 833 832 830 828 828 827 826 824 823 822
762 774 775 785 793 797 802 805 809 812 816 820 824 828 831 835 838 842 844 846 848 850 850 851 852 851 850 849 847 845 843 843 841 839 838 837 834 832 831 828 827 825 824 822
764 769 774 785 794 799 803 807 811 815 818 821 826 829 834 838 841 844 846 848 850 852 852 852 852 853 851 850 849 848 848 847 846 843 841 839 836 834 833 831 830 829 825 822
767 773 782 787 792 798 803 808 813 817 821 825 828 832 837 840 843 845 848 851 852 853 853 853 854 854 853 853 852 851 850 848 846 845 843 840 838 836 834 831 829 828 826 823
772 776 782 787 793 800 805 811 814 819 823 827 831 834 838 841 844 847 850 853 853 854 854 854 854 854 853 852 851 851 850 849 847 845 843 840 838 836 834 832 830 828 825 822
774 777 783 788 794 800 806 811 815 820 825 828 832 835 838 841 846 849 852 852 851 854 855 854 854 853 852 851 851 852 850 849 847 844 842 840 838 837 835 833 831 828 826 823
773 779 783 790 794 801 806 810 814 820 824 828 832 835 839 843 846 850 852 852 852 854 854 853 853 852 852 852 851 851 850 848 846 844 842 841 839 838 836 833 831 828 826 824
773 779 784 790 795 801 806 810 814 819 824 828 832 836 839 842 845 848 850 851 852 853 853 852 851 851 852 852 851 850 849 847 845 844 842 841 839 837 835 833 831 828 826 823
774 779 785 789 795 801 806 810 814 819 823 827 831 835 839 842 845 847 849 850 851 852 851 851 851 851 853 852 850 848 848 846 845 844 842 840 838 836 835 833 830 828 825 823
777 781 786 791 796 801 805 810 814 818 823 827 831 836 839 843 845 847 848 849 850 849 850 850 850 850 850 849 849 847 846 845 844 843 841 839 837 835 833 832 829 827 824 822
783 786 790 793 798 801 805 810 814 819 824 827 831 835 838 841 844 846 847 847 846 848 849 849 849 849 849 849 847 846 845 844 842 841 839 837 835 833 832 830 828 825 823 820
787 791 795 798 802 806 809 812 816 820 824 828 832 835 838 841 844 845 845 846 846 847 848 848 847 847 847 846 845 845 843 842 840 839 837 835 833 831 829 827 825 822 820 818
791 794 798 801 805 809 812 815 818 821 825 828 831 835 838 840 842 843 842 842 844 845 846 846 845 845 844 844 843 842 841 839 837 836 834 832 830 828 825 823 820 818 816 814
795 798 801 804 807 810 814 817 820 823 826 829 831 834 837 839 840 840 840 841 842 843 843 844 843 842 842 841 841 839 838 836 834 832 831 829 827 824 821 819 816 813 811 809
796 800 803 805 808 811 814 818 821 823 826 829 831 833 835 837 838 839 839 840 841 841 841 841 840 839 838 838 837 835 834 832 830 828 826 825 823 821 818 815 813 809 807 805
798 799 802 805 806 808 811 815 818 821 823 826 829 831 833 835 836 838 839 839 839 839 839 838 838 837 836 834 833 832 830 829 828 826 824 822 820 818 815 812 809 806 804 801
798 799 801 804 804 806 809 812 815 817 820 823 825 827 830 832 834 836 837 837 837 837 837 836 836 835 834 833 832 830 829 827 826 824 821 819 817 815 812 809 806 804 802 800